Weather History for Malmstrom AFB, MT

Change the Weather History Date:

Tuesday, July 16, 2013

  Actual Average (KGTF) Record (KGTF)
Temperature  
Mean Temperature 64 °F 68 °F  
Max Temperature 78 °F 84 °F 102 °F (1919)
Min Temperature 51 °F 52 °F 36 °F (1999)
Degree Days  
Heating Degree Days 0 1  
Month to date heating degree days 35  
Since 1 June heating degree days 226  
Since 1 July heating degree days 35  
Cooling Degree Days 0 4  
Month to date cooling degree days 52  
Year to date cooling degree days 91  
Since 1 June cooling degree days 84  
Growing Degree Days 14 (Base 50)    
Moisture  
Dew Point 45 °F    
Average Humidity 51    
Maximum Humidity 74    
Minimum Humidity 34    
Precipitation  
Precipitation 0.00 in 0.05 in 0.84 in (1928)
Month to date precipitation 0.90  
Year to date precipitation 9.16  
Snow  
Snow 0.00 in 0.00 in 0.00 in (2002)
Month to date snowfall 0.0  
Since 1 June snowfall 0.3  
Since 1 July snowfall 0.0  
Snow Depth -    
Sea Level Pressure  
Sea Level Pressure 30.23 in    
Wind  
Wind Speed 7 mph (North)    
Max Wind Speed 18 mph    
Max Gust Speed 23 mph    
Visibility 10 miles    
Events      
T = Trace of Precipitation, MM = Missing Value Source: NWS Daily Summary

Daily Weather History Graph

Daily Weather History Graph

Search for Another Location

Airport:

Trip Planner

Search our weather history database for the weather conditions in past years. The results will help you decide how hot, cold, wet, or windy it might be!

Date:

Astronomy

Jul. 16, 2013 Rise Set
Actual Time 5:44 AM MDT 9:16 PM MDT
Civil Twilight 5:05 AM MDT 9:55 PM MDT
Nautical Twilight 4:14 AM MDT 10:46 PM MDT
Astronomical Twilight 3:05 AM MDT 11:54 PM MDT
Moon 2:52 PM MDT (7/16) 12:29 AM MDT (7/16)
Length of Visible Light 16h 49m
Length of Day
15h 32m
First Quarter, 57% of the Moon is Illuminated
Jul 16
First Quarter
Jul 22
Full
Jul 29
Last Quarter
Aug 6
New
Aug 14
First Quarter

Hourly Weather History & Observations

Time (MDT) Temp. Dew Point Humidity Pressure Visibility Wind Dir Wind Speed Gust Speed Precip Events Conditions
12:56 AM 55.9 °F 44.1 °F 64% 30.20 in 10.0 mi North 9.2 mph - N/A   Clear
1:56 AM 53.1 °F 44.1 °F 71% 30.22 in 10.0 mi NNE 5.8 mph - N/A   Clear
2:56 AM 52.0 °F 43.0 °F 71% 30.23 in 10.0 mi NNE 5.8 mph - N/A   Clear
3:56 AM 53.1 °F 44.1 °F 71% 30.24 in 10.0 mi NNW 3.5 mph - N/A   Clear
4:56 AM 52.0 °F 43.0 °F 71% 30.25 in 10.0 mi NW 3.5 mph - N/A   Clear
5:56 AM 51.1 °F 43.0 °F 74% 30.27 in 10.0 mi WNW 3.5 mph - N/A   Clear
6:56 AM 53.1 °F 43.0 °F 69% 30.29 in 10.0 mi NNW 3.5 mph - N/A   Clear
7:56 AM 55.0 °F 43.0 °F 64% 30.31 in 10.0 mi North 5.8 mph - N/A   Clear
8:56 AM 57.0 °F 43.0 °F 59% 30.32 in 10.0 mi North 9.2 mph - N/A   Clear
9:56 AM 59.0 °F 43.0 °F 55% 30.32 in 10.0 mi North 5.8 mph - N/A   Clear
10:56 AM 62.1 °F 43.0 °F 50% 30.31 in 10.0 mi North 9.2 mph 16.1 mph N/A   Clear
11:56 AM 66.0 °F 42.1 °F 42% 30.29 in 10.0 mi North 8.1 mph - N/A   Clear
12:56 PM 68.0 °F 44.1 °F 42% 30.28 in 10.0 mi NE 10.4 mph - N/A   Clear
1:56 PM 71.1 °F 44.1 °F 38% 30.26 in 10.0 mi North 5.8 mph 16.1 mph N/A   Clear
2:56 PM 73.9 °F 46.0 °F 37% 30.24 in 10.0 mi Variable 5.8 mph - N/A   Clear
3:56 PM 75.9 °F 46.0 °F 35% 30.21 in 10.0 mi East 9.2 mph 16.1 mph N/A   Clear
4:56 PM 77.0 °F 46.9 °F 34% 30.19 in 10.0 mi North 10.4 mph 17.3 mph N/A   Clear
5:56 PM 78.1 °F 48.0 °F 35% 30.17 in 10.0 mi NNE 18.4 mph 23.0 mph N/A   Clear
6:56 PM 78.1 °F 48.9 °F 36% 30.15 in 10.0 mi NNE 17.3 mph - N/A   Clear
7:56 PM 73.9 °F 46.0 °F 37% 30.17 in 10.0 mi NNE 11.5 mph - N/A   Clear
8:56 PM 72.0 °F 45.0 °F 38% 30.17 in 10.0 mi North 11.5 mph - N/A   Clear
9:56 PM 68.0 °F 45.0 °F 43% 30.18 in 10.0 mi North 8.1 mph - N/A   Clear
10:56 PM 66.0 °F 46.0 °F 48% 30.19 in 10.0 mi Calm Calm - N/A   Clear
11:56 PM 66.0 °F 46.9 °F 50% 30.17 in 10.0 mi South 6.9 mph - N/A   Clear